Regional Weather Roundup
Issued by NWS

Home | Current Version | Previous Version | Graphics & Text | Print | Product List | Glossary On
Versions: 1 2 3 4 5 6 7 8 9 10 11 12 13 14 15 16 17 18 19 20 21 22 23 24 25 26 27 28 29 30 31 32 33 34 35 36 37 38 39 40 41 42 43 44 45 46 47 48 49 50
000
ASUS43 KLOT 191909
RWRIL

ILLINOIS REGIONAL WEATHER ROUNDUP
NATIONAL WEATHER SERVICE CHICAGO/ROMEOVILLE IL
200 PM CDT TUE SEP 19 2017

NOTE: "FAIR" INDICATES FEW OR NO CLOUDS BELOW 12,000 FEET WITH NO
SIGNIFICANT WEATHER AND/OR OBSTRUCTIONS TO VISIBILITY.

* THESE STATIONS ARE NOT UNDER NWS QUALITY CONTROL. THEY ALSO MAY NOT
  REPORT WEATHER SUCH AS PRECIPITATION OR FOG.

ILZ001-002-007-009-015-016-024-192000-
NORTHWEST ILLINOIS

CITY           SKY/WX    TMP DP  RH WIND       PRES   REMARKS
MOLINE         MOSUNNY   79  64  60 E6        29.92F HX  81
STERLING*        N/A     75  66  73 VRB5      29.94F
SAVANNA*       CLOUDY    74  65  73 E6        29.94F
$$

ILZ003-004-008-010-011-017-018-192000-
NORTH CENTRAL ILLINOIS

CITY           SKY/WX    TMP DP  RH WIND       PRES   REMARKS
ROCKFORD       MOSUNNY   77  64  64 SE6       29.94F
FREEPORT*      PTSUNNY   77  63  61 E3        29.95F
ROCHELLE*      PTSUNNY   78  65  64 CALM      29.94F HX  80
DE KALB*       PTSUNNY   77  65  67 CALM      29.94F
PERU*          MOSUNNY   73  63  72 SW3       29.95F
$$

ILZ005-006-012>014-019>023-192000-
NORTHEAST ILLINOIS

CITY           SKY/WX    TMP DP  RH WIND       PRES   REMARKS
CHICAGO-OHARE  PTSUNNY   77  65  66 NE13      29.93F
CHICAGO-MIDWAY MOSUNNY   76  64  66 NE12      29.93F
AURORA         PTSUNNY   80  65  59 SW3       29.93F HX  82
LANSING*       MOSUNNY   76  66  71 NE10      29.94S
JOLIET*        MOSUNNY   81  66  61 CALM      29.92F HX  83
WAUKEGAN       PTSUNNY   71  67  87 E9        29.95F
DUPAGE AIRPORT CLOUDY    77  64  64 E3        29.93F
KANKAKEE*      PTSUNNY   77  64  64 CALM      29.93F
WHEELING       PTSUNNY   75  67  76 E9        29.96F
MORRIS*        MOSUNNY   79  65  60 S5        29.92F HX  81
ROMEOVILLE*    CLOUDY    76  64  64 CALM      29.93F
NORTHERLY ISL    N/A     72  65  78 NE8         N/A
$$

LMZ740>746-192000-
SOUTHERN LAKE MICHIGAN

STATION/POSITION SKY/WX   TEMP    WIND        PRES    VSBY  WAVE
                          AIR SEA DIR/SP/G                  HT/PER
                          (F)     (DEG/KT/KT) (MB)    (MI)  (FT/S)
SOUTHERN BUOY              66 68   60/  8/  8 1015.4          1/ 3
WILMETTE HARBOR            69 69   60/ 10/ 12   N/A           2/ 4
HARRISON CRIB              69      50/  6/  7   N/A
CALUMET HARBOR             70      20/  8/ 10 1013.5F
BURNS HARBOR               69      50/ 13/ 14 1014.2F
MICHIGAN CITY              67      50/ 11/ 12   N/A
MICHIGAN CITY 6N           68 68   70/  8/ 10   N/A           2/ 4
ST. JOSEPH                 68 69   70/  2/  4 1013.5          1
$$

ILZ025>027-034>036-040-047-049-050-058-095>099-192000-
WEST-CENTRAL ILLINOIS

CITY           SKY/WX    TMP DP  RH WIND       PRES   REMARKS
QUINCY         MOSUNNY   80  67  64 SE8       29.91F HX  82
GALESBURG*     MOSUNNY   77  67  71 E5        29.94F
MACOMB*        MOSUNNY   78  65  65 S6        29.95F HX  80
JACKSONVILLE*  MOSUNNY   81  66  60 W5        29.91F HX  83
PITTSFIELD*    MOSUNNY   81  68  65 SW5       29.92F HX  84
$$

ILZ028>032-037-038-041>044-048-051>054-059>061-192000-
CENTRAL ILLINOIS

CITY           SKY/WX    TMP DP  RH WIND       PRES   REMARKS
PONTIAC        PTSUNNY   77  68  73 CALM      29.94F
BLOOMINGTON    PTSUNNY   80  65  59 VRB3      29.94F HX  82
DECATUR        SUNNY     80  69  69 NW5       29.93F HX  83
PEORIA         MOSUNNY   78  67  68 VRB3      29.93F HX  80
LACON*         CLOUDY    69  67  93 CALM      29.95F
LINCOLN*       MOSUNNY   78  68  72 CALM      29.93F HX  80
SPRINGFIELD    MOSUNNY   84  67  56 NE5       29.92F HX  86
TAYLORVILLE    SUNNY     82  65  55 CALM      29.92F HX  84
$$

ILZ033-039-045-046-055>057-062-063-192000-
EAST-CENTRAL ILLINOIS

CITY           SKY/WX    TMP DP  RH WIND       PRES   REMARKS
CHAMPAIGN      MOSUNNY   77  66  68 NW5       29.94F
RANTOUL*       MOSUNNY   77  68  72 S3        29.94F
MATTOON        PTSUNNY   81  65  58 W7        29.91F HX  83
PARIS*         PTSUNNY   80  67  63 NW6       29.92F HX  82
$$

ILZ079-100>102-192000-
SOUTHWEST ILLINOIS

CITY           SKY/WX    TMP DP  RH WIND       PRES   REMARKS
ALTON          MOSUNNY   84  66  54 W7        29.92F HX  86
BELLEVILLE     MOSUNNY   87  63  44 VRB2      29.93F HX  88
CAHOKIA*       MOSUNNY   87  64  46 VRB3      29.90F HX  88
SPARTA*        MOSUNNY   83  66  56 SE5       29.93F HX  86
$$

ILZ064>066-069>071-074>076-080>082-084>086-088>090-092>094-192000-
SOUTH-CENTRAL ILLINOIS

CITY           SKY/WX    TMP DP  RH WIND       PRES   REMARKS
CARBONDALE     MOSUNNY   83  69  62 CALM      29.91F HX  86
CAIRO*         SUNNY     85  72  66 CALM      29.91F HX  90
EFFINGHAM*     PTSUNNY   86  65  49 W7        29.92F HX  87
MARION         PTSUNNY   86  68  54 SW7       29.93F HX  89
CENTRALIA*     MOSUNNY   86  69  56 S6        29.91F HX  90
SALEM*         PTSUNNY   86  65  48 S3        29.91F HX  88
METROPOLIS*    SUNNY     86  69  56 CALM      29.92F HX  89
$$

ILZ067-068-072-073-078-083-087-091-192000-
SOUTHEAST ILLINOIS

CITY           SKY/WX    TMP DP  RH WIND       PRES   REMARKS
LAWRENCEVILLE  MOSUNNY   81  67  62 CALM      29.92F HX  83
FLORA*         PTSUNNY   87  67  51 S3        29.92F HX  89
FAIRFIELD*     MOSUNNY   83  67  59 CALM      29.90F HX  86
HARRISBURG*    PTSUNNY   86  69  57 SW7       29.92F HX  89
ROBINSON*      PTSUNNY   80  67  64 CALM      29.93F HX  82
CARMI*           N/A     83  70  64 SW3       29.92F HX  86
$$

ABBREVIATIONS USED IN REMARKS
   TC - TEMPERATURE IN CELSIUS
  WCI - WIND CHILL INDEX
   HX - HEAT INDEX
  VSB - VISIBILITY
$$





USA.gov is the U.S. government's official web portal to all federal, state and local government web resources and services.